Weather Roundup
Issued by NWS Chicago, IL

Home | Current Version | Previous Version | Text Only | Print | Product List | Glossary On
Versions: 1 2 3 4 5 6 7 8 9 10 11 12 13 14 15 16 17 18 19 20 21 22 23 24 25 26 27 28 29 30 31 32 33 34 35 36 37 38 39 40 41 42 43 44 45 46 47 48 49 50
000
NZUS59 KLOT 261358
HRRLOT

CHICAGO AREA WEATHER ROUNDUP
NATIONAL WEATHER SERVICE CHICAGO/ROMEOVILLE IL
900 AM CDT SAT JUL 26 2014

NOTE: "FAIR" INDICATES FEW OR NO CLOUDS BELOW 12,000 FEET WITH NO
SIGNIFICANT WEATHER AND/OR OBSTRUCTIONS TO VISIBILITY.

* THESE STATIONS ARE NOT UNDER NWS QUALITY CONTROL. THEY ALSO MAY NOT
  REPORT WEATHER SUCH AS PRECIPITATION OR FOG.

ILZ005-006-012>014-019>023-261500-
NORTHEAST ILLINOIS

CITY           SKY/WX    TMP DP  RH WIND       PRES   REMARKS
OHARE          CLOUDY    72  61  68 SW8       29.85S
MIDWAY         CLOUDY    73  64  73 S7        29.85S
AURORA         MOSUNNY   72  64  76 S3        29.85S
WAUKEGAN       CLOUDY    68  61  78 E3        29.84S
DUPAGE AIRPORT CLOUDY    73  64  73 SW6       29.84S
WHEELING       CLOUDY    73  63  70 VRB3      29.86F
NORTHERLY IS     N/A     71  62  73 S3          N/A
$$

WIZ051-052-058>065-066-070>072-261500-
SOUTHEAST WISCONSIN

CITY           SKY/WX    TMP DP  RH WIND       PRES   REMARKS
MILWAUKEE      PTSUNNY   71  60  68 SW5       29.85F
WAUKESHA       MOSUNNY   68  59  73 SW5       29.86S
$$

INZ001>003-010>013-019-020-261500-
NORTHWEST INDIANA

CITY           SKY/WX    TMP DP  RH WIND       PRES   REMARKS
GARY*          CLOUDY    72  64  78 S12       29.86F
MICHIGAN CITY* NOT AVBL
RENSSELAER*    NOT AVBL
$$

LMZ740>746-261500-
SOUTHERN LAKE MICHIGAN

STATION/POSITION TIME  SKY/WX   TEMP WIND        PRES    VSBY
                                AIR  DIR/SP/G
                 (UTC)          (F)  (DEG/KT/KT) (MB)    (MI)
HARRISON CRIB    1300            68  170/  8/ 10   N/A
BURNHAM HARBOR   1300            71  170/  3/  8   N/A
CALUMET HARBOR   1300            70  200/  5/  8 1009.7F
BURNS HARBOR     1300            69  190/  7/ 10 1011.9S
MICHIGAN CITY    1300            68  170/  8/ 12   N/A
$$

ABBREVIATIONS USED IN REMARKS
   TC - TEMPERATURE IN CELSIUS
  WCI - WIND CHILL INDEX
   HX - HEAT INDEX
  VSB - VISIBILITY
$$


USA.gov is the U.S. government's official web portal to all federal, state and local government web resources and services.